Location: Unspecified
(64.9000°N, 0.0000°E)
Time: 13:31:21
(UTC+00:00)

A-11 Canister half - Pass Details

Date: 16 June 2019
Orbit: 1526 x 1683 km, 47.3° (Epoch: 17 July)

Event Time Altitude Azimuth Distance (km) Brightness Sun altitude
Rises 05:01:29 0° 177° (S) 4,695 11.3 15.0°
Reaches altitude 10° 05:08:33 10° 141° (SE) 3,697 11.3 15.7°
Maximum altitude 05:09:50 10° 133° (SE) 3,668 11.4 15.9°
Drops below altitude 10° 05:11:06 10° 125° (SE) 3,695 11.6 16.0°
Sets 05:18:08 0° 89° (E) 4,686 13.0 16.7°
